Time,TemperatureF,DewpointF,PressureIn,WindDirection,WindDirectionDegrees,WindSpeedMPH,WindSpeedGustMPH,Humidity,HourlyPrecipIn,Conditions,Clouds,dailyrainin,SoftwareType,DateUTC
2013-02-19 00:05:00,20.6,9.0,30.13,ESE,118,0.0,1.0,59,0.00,,,0.00,weatherlink.com 1.10,2013-02-19 05:05:00,
2013-02-19 00:21:00,20.2,9.0,30.13,ESE,105,1.0,1.0,60,0.00,,,0.00,weatherlink.com 1.10,2013-02-19 05:21:00,
2013-02-19 00:36:00,19.6,9.0,30.14,East,99,0.0,0.0,62,0.00,,,0.00,weatherlink.com 1.10,2013-02-19 05:36:00,
2013-02-19 00:52:00,19.3,9.0,30.13,East,99,0.0,1.0,64,0.00,,,0.00,weatherlink.com 1.10,2013-02-19 05:52:00,
2013-02-19 01:08:00,19.3,10.0,30.12,East,99,0.0,0.0,67,0.00,,,0.00,weatherlink.com 1.10,2013-02-19 06:08:00,
2013-02-19 01:24:00,20.0,10.0,30.11,East,99,0.0,0.0,66,0.00,,,0.00,weatherlink.com 1.10,2013-02-19 06:24:00,
2013-02-19 01:40:00,20.8,11.0,30.11,ENE,77,0.0,1.0,65,0.00,,,0.00,weatherlink.com 1.10,2013-02-19 06:40:00,
2013-02-19 01:56:00,21.5,10.0,30.11,NNW,345,1.0,2.0,62,0.00,,,0.00,weatherlink.com 1.10,2013-02-19 06:56:00,
2013-02-19 02:12:00,21.7,11.0,30.11,NNW,342,0.0,1.0,64,0.00,,,0.00,weatherlink.com 1.10,2013-02-19 07:12:00,
2013-02-19 02:28:00,22.0,11.0,30.10,NNW,332,0.0,1.0,63,0.00,,,0.00,weatherlink.com 1.10,2013-02-19 07:28:00,
2013-02-19 02:43:00,22.2,12.0,30.09,NNW,332,0.0,1.0,64,0.00,,,0.00,weatherlink.com 1.10,2013-02-19 07:43:00,
2013-02-19 02:59:00,22.3,12.0,30.08,NNW,341,1.0,2.0,64,0.00,,,0.00,weatherlink.com 1.10,2013-02-19 07:59:00,
2013-02-19 03:15:00,22.5,13.0,30.07,NNW,328,0.0,1.0,66,0.00,,,0.00,weatherlink.com 1.10,2013-02-19 08:15:00,
2013-02-19 03:31:00,22.7,13.0,30.07,NNW,342,1.0,1.0,65,0.00,,,0.00,weatherlink.com 1.10,2013-02-19 08:31:00,
2013-02-19 03:47:00,22.8,13.0,30.07,NNW,328,0.0,1.0,67,0.00,,,0.00,weatherlink.com 1.10,2013-02-19 08:47:00,
2013-02-19 04:03:00,22.8,13.0,30.06,NNW,328,0.0,1.0,67,0.00,,,0.00,weatherlink.com 1.10,2013-02-19 09:03:00,
2013-02-19 04:18:00,23.0,14.0,30.05,North,351,0.0,2.0,68,0.00,,,0.00,weatherlink.com 1.10,2013-02-19 09:18:00,
2013-02-19 04:35:00,23.0,14.0,30.05,NNW,331,0.0,2.0,68,0.00,,,0.00,weatherlink.com 1.10,2013-02-19 09:35:00,
2013-02-19 04:50:00,22.7,14.0,30.04,NNW,331,0.0,0.0,69,0.00,,,0.00,weatherlink.com 1.10,2013-02-19 09:50:00,
2013-02-19 05:06:00,22.0,14.0,30.04,NNW,332,0.0,0.0,70,0.00,,,0.00,weatherlink.com 1.10,2013-02-19 10:06:00,
2013-02-19 05:22:00,21.5,14.0,30.03,NNW,332,0.0,1.0,71,0.00,,,0.00,weatherlink.com 1.10,2013-02-19 10:22:00,
2013-02-19 05:37:00,21.0,13.0,30.03,NNW,338,0.0,2.0,72,0.00,,,0.00,weatherlink.com 1.10,2013-02-19 10:37:00,
2013-02-19 05:54:00,20.5,13.0,30.02,NNW,339,0.0,1.0,73,0.00,,,0.00,weatherlink.com 1.10,2013-02-19 10:54:00,
2013-02-19 06:09:00,20.1,13.0,30.01,NW,309,0.0,1.0,73,0.00,,,0.00,weatherlink.com 1.10,2013-02-19 11:09:00,
2013-02-19 06:25:00,19.8,13.0,29.99,NNW,340,0.0,1.0,73,0.00,,,0.00,weatherlink.com 1.10,2013-02-19 11:25:00,
2013-02-19 06:41:00,19.4,12.0,29.99,NNW,340,0.0,0.0,74,0.00,,,0.00,weatherlink.com 1.10,2013-02-19 11:41:00,
2013-02-19 06:57:00,18.9,13.0,29.99,NNW,340,0.0,0.0,76,0.00,,,0.00,weatherlink.com 1.10,2013-02-19 11:57:00,
2013-02-19 07:13:00,18.8,13.0,29.99,NNW,340,0.0,0.0,78,0.00,,,0.00,weatherlink.com 1.10,2013-02-19 12:13:00,
2013-02-19 07:29:00,20.2,14.0,29.98,NE,51,0.0,1.0,77,0.00,,,0.00,weatherlink.com 1.10,2013-02-19 12:29:00,
2013-02-19 07:44:00,21.9,14.0,29.98,NE,51,0.0,0.0,72,0.00,,,0.00,weatherlink.com 1.10,2013-02-19 12:44:00,
2013-02-19 08:00:00,22.4,14.0,29.97,NE,52,0.0,0.0,71,0.00,,,0.00,weatherlink.com 1.10,2013-02-19 13:00:00,
2013-02-19 08:16:00,23.3,15.0,29.97,NE,53,0.0,0.0,69,0.00,,,0.00,weatherlink.com 1.10,2013-02-19 13:16:00,
2013-02-19 08:32:00,24.9,15.0,29.96,NE,52,0.0,0.0,66,0.00,,,0.00,weatherlink.com 1.10,2013-02-19 13:32:00,
2013-02-19 08:48:00,26.2,16.0,29.95,NNW,330,0.0,2.0,65,0.00,,,0.00,weatherlink.com 1.10,2013-02-19 13:48:00,
2013-02-19 09:04:00,27.1,16.0,29.93,NNW,337,0.0,1.0,62,0.00,,,0.00,weatherlink.com 1.10,2013-02-19 14:04:00,
2013-02-19 09:19:00,27.8,16.0,29.91,NW,314,0.0,4.0,62,0.00,,,0.00,weatherlink.com 1.10,2013-02-19 14:19:00,
2013-02-19 09:35:00,28.9,17.0,29.90,North,360,2.0,6.0,61,0.00,,,0.00,weatherlink.com 1.10,2013-02-19 14:35:00,
2013-02-19 09:51:00,30.1,18.0,29.91,WNW,300,2.0,5.0,60,0.00,,,0.00,weatherlink.com 1.10,2013-02-19 14:51:00,
2013-02-19 10:07:00,33.0,19.0,29.91,NW,309,0.0,5.0,57,0.00,,,0.00,weatherlink.com 1.10,2013-02-19 15:07:00,
2013-02-19 10:23:00,38.0,21.0,29.88,ESE,121,8.0,11.0,50,0.00,,,0.00,weatherlink.com 1.10,2013-02-19 15:23:00,
2013-02-19 10:39:00,39.4,21.0,29.88,ESE,123,9.0,17.0,48,0.00,,,0.00,weatherlink.com 1.10,2013-02-19 15:39:00,
2013-02-19 10:55:00,40.1,22.0,29.86,ESE,113,5.0,12.0,48,0.00,,,0.00,weatherlink.com 1.10,2013-02-19 15:55:00,
2013-02-19 11:10:00,40.4,22.0,29.85,ESE,115,3.0,17.0,48,0.00,,,0.00,weatherlink.com 1.10,2013-02-19 16:10:00,
2013-02-19 11:26:00,40.7,23.0,29.85,ESE,113,10.0,17.0,48,0.00,,,0.00,weatherlink.com 1.10,2013-02-19 16:26:00,
2013-02-19 11:42:00,40.9,23.0,29.83,East,101,6.0,16.0,48,0.00,,,0.00,weatherlink.com 1.10,2013-02-19 16:42:00,
2013-02-19 11:58:00,41.1,23.0,29.80,East,86,9.0,14.0,49,0.00,,,0.00,weatherlink.com 1.10,2013-02-19 16:58:00,
2013-02-19 12:14:00,41.5,23.0,29.80,ESE,113,12.0,18.0,48,0.00,,,0.00,weatherlink.com 1.10,2013-02-19 17:14:00,
2013-02-19 12:30:00,42.0,24.0,29.78,SE,129,6.0,15.0,48,0.00,,,0.00,weatherlink.com 1.10,2013-02-19 17:30:00,
2013-02-19 12:46:00,42.5,24.0,29.78,ESE,113,13.0,19.0,48,0.00,,,0.00,weatherlink.com 1.10,2013-02-19 17:46:00,
2013-02-19 13:01:00,43.3,24.0,29.76,East,95,13.0,24.0,47,0.00,,,0.00,weatherlink.com 1.10,2013-02-19 18:01:00,
2013-02-19 13:17:00,43.5,25.0,29.75,East,97,12.0,23.0,47,0.00,,,0.00,weatherlink.com 1.10,2013-02-19 18:17:00,
2013-02-19 13:33:00,44.0,25.0,29.75,ESE,104,2.0,25.0,47,0.00,,,0.00,weatherlink.com 1.10,2013-02-19 18:33:00,
2013-02-19 13:49:00,43.3,25.0,29.75,East,100,17.0,32.0,49,0.00,,,0.00,weatherlink.com 1.10,2013-02-19 18:49:00,
2013-02-19 14:05:00,42.6,26.0,29.74,ESE,114,6.0,39.0,51,0.00,,,0.00,weatherlink.com 1.10,2013-02-19 19:05:00,
2013-02-19 14:21:00,41.8,27.0,29.74,East,98,15.0,25.0,55,0.00,,,0.00,weatherlink.com 1.10,2013-02-19 19:21:00,
2013-02-19 14:37:00,40.5,29.0,29.74,East,86,6.0,27.0,64,0.00,,,0.00,weatherlink.com 1.10,2013-02-19 19:37:00,
2013-02-19 14:53:00,39.8,29.0,29.73,ESE,110,6.0,18.0,65,0.00,,,0.00,weatherlink.com 1.10,2013-02-19 19:53:00,
2013-02-19 15:09:00,39.1,30.0,29.73,ESE,108,5.0,15.0,69,0.00,,,0.00,weatherlink.com 1.10,2013-02-19 20:09:00,
2013-02-19 15:24:00,38.8,31.0,29.71,ESE,112,8.0,20.0,72,0.00,,,0.00,weatherlink.com 1.10,2013-02-19 20:24:00,
2013-02-19 15:41:00,38.5,32.0,29.71,East,82,6.0,14.0,76,0.00,,,0.00,weatherlink.com 1.10,2013-02-19 20:41:00,
2013-02-19 15:56:00,38.2,32.0,29.69,East,100,7.0,11.0,79,0.00,,,0.00,weatherlink.com 1.10,2013-02-19 20:56:00,
2013-02-19 16:12:00,38.3,33.0,29.68,South,189,2.0,8.0,80,0.00,,,0.00,weatherlink.com 1.10,2013-02-19 21:12:00,
2013-02-19 16:28:00,39.2,34.0,29.67,ENE,73,4.0,11.0,82,0.00,,,0.00,weatherlink.com 1.10,2013-02-19 21:28:00,
2013-02-19 16:44:00,39.4,35.0,29.67,East,94,4.0,18.0,83,0.00,,,0.00,weatherlink.com 1.10,2013-02-19 21:44:00,
2013-02-19 17:00:00,39.2,35.0,29.67,SE,144,9.0,13.0,85,0.00,,,0.00,weatherlink.com 1.10,2013-02-19 22:00:00,
2013-02-19 17:16:00,39.1,35.0,29.66,ESE,113,13.0,14.0,86,0.00,,,0.00,weatherlink.com 1.10,2013-02-19 22:16:00,
2013-02-19 17:31:00,38.8,35.0,29.66,ESE,112,10.0,20.0,86,0.00,,,0.00,weatherlink.com 1.10,2013-02-19 22:31:00,
2013-02-19 17:47:00,38.5,35.0,29.66,ESE,108,5.0,21.0,87,0.01,,,0.01,weatherlink.com 1.10,2013-02-19 22:47:00,
2013-02-19 18:03:00,38.0,35.0,29.65,SE,134,5.0,14.0,88,0.02,,,0.02,weatherlink.com 1.10,2013-02-19 23:03:00,
2013-02-19 18:19:00,37.8,35.0,29.65,SE,132,6.0,10.0,89,0.02,,,0.02,weatherlink.com 1.10,2013-02-19 23:19:00,
2013-02-19 18:35:00,37.7,35.0,29.64,East,82,4.0,13.0,90,0.03,,,0.03,weatherlink.com 1.10,2013-02-19 23:35:00,
2013-02-19 18:50:00,37.7,35.0,29.64,East,100,11.0,16.0,90,0.03,,,0.04,weatherlink.com 1.10,2013-02-19 23:50:00,
2013-02-19 19:06:00,37.6,35.0,29.63,ESE,123,1.0,11.0,90,0.03,,,0.05,weatherlink.com 1.10,2013-02-20 00:06:00,
2013-02-19 19:24:00,37.9,35.0,29.62,SE,139,3.0,12.0,90,0.02,,,0.05,weatherlink.com 1.10,2013-02-20 00:24:00,
2013-02-19 19:38:00,38.0,35.0,29.63,SE,139,4.0,11.0,89,0.02,,,0.06,weatherlink.com 1.10,2013-02-20 00:38:00,
2013-02-19 19:54:00,37.9,35.0,29.62,ESE,108,9.0,11.0,89,0.01,,,0.06,weatherlink.com 1.10,2013-02-20 00:54:00,
2013-02-19 20:10:00,37.4,35.0,29.62,ESE,105,4.0,8.0,90,0.03,,,0.08,weatherlink.com 1.10,2013-02-20 01:10:00,
2013-02-19 20:26:00,37.2,35.0,29.62,SE,139,2.0,9.0,91,0.05,,,0.10,weatherlink.com 1.10,2013-02-20 01:26:00,
2013-02-19 20:42:00,37.0,35.0,29.61,ESE,112,6.0,9.0,91,0.05,,,0.11,weatherlink.com 1.10,2013-02-20 01:42:00,
2013-02-19 20:58:00,36.9,35.0,29.60,ESE,113,1.0,6.0,91,0.06,,,0.12,weatherlink.com 1.10,2013-02-20 01:58:00,
2013-02-19 21:13:00,36.8,34.0,29.61,East,98,1.0,3.0,91,0.04,,,0.12,weatherlink.com 1.10,2013-02-20 02:13:00,
2013-02-19 21:29:00,36.7,35.0,29.60,ESE,103,0.0,4.0,92,0.02,,,0.12,weatherlink.com 1.10,2013-02-20 02:29:00,
2013-02-19 21:45:00,36.7,34.0,29.60,East,95,3.0,7.0,91,0.01,,,0.12,weatherlink.com 1.10,2013-02-20 02:45:00,
2013-02-19 22:01:00,36.8,34.0,29.60,ESE,105,2.0,5.0,91,0.00,,,0.12,weatherlink.com 1.10,2013-02-20 03:01:00,
2013-02-19 22:17:00,36.8,34.0,29.59,ESE,123,1.0,5.0,91,0.00,,,0.12,weatherlink.com 1.10,2013-02-20 03:17:00,
2013-02-19 22:33:00,36.6,34.0,29.60,East,96,2.0,2.0,91,0.00,,,0.12,weatherlink.com 1.10,2013-02-20 03:33:00,
2013-02-19 22:49:00,35.9,34.0,29.62,NW,325,6.0,15.0,91,0.00,,,0.12,weatherlink.com 1.10,2013-02-20 03:49:00,
2013-02-19 23:04:00,34.6,31.0,29.63,WNW,287,6.0,16.0,86,0.01,,,0.13,weatherlink.com 1.10,2013-02-20 04:04:00,
2013-02-19 23:20:00,33.9,30.0,29.63,West,278,5.0,25.0,85,0.01,,,0.13,weatherlink.com 1.10,2013-02-20 04:20:00,
2013-02-19 23:36:00,33.4,28.0,29.63,North,349,12.0,17.0,81,0.01,,,0.13,weatherlink.com 1.10,2013-02-20 04:36:00,
2013-02-19 23:52:00,33.4,27.0,29.63,NNE,31,3.0,20.0,76,0.01,,,0.13,weatherlink.com 1.10,2013-02-20 04:52:00,